| time (UTC) | temp C | wind direction | speed KPH | gust KPH | rain 1hr cm | rain 24hr cm | rain mn cm | humidity % | barometer mb |
| 20260505064509 | 12 | 58 | 0.0 | 0.0 | 0.00 | 0.00 | 0.00 | 86 | 1012.9 |
| 20260505063029 | 12 | 58 | 0.0 | 0.0 | 0.00 | 0.00 | 0.00 | 85 | 1012.6 |
| 20260505061604 | 12 | 58 | 0.0 | 0.0 | 0.00 | 0.00 | 0.00 | 84 | 1012.4 |
| 20260505060057 | 12 | 58 | 0.0 | 0.0 | 0.00 | 0.00 | 0.00 | 83 | 1012.4 |
| 20260505054603 | 13 | 58 | 0.0 | 0.0 | 0.00 | 0.00 | 0.00 | 80 | 1012.2 |
| 20260505053016 | 14 | 58 | 0.0 | 0.0 | 0.00 | 0.00 | 0.00 | 78 | 1012.2 |
| 20260505051605 | 15 | 58 | 0.0 | 0.0 | 0.00 | 0.00 | 0.00 | 76 | 1012.1 |
| 20260505041528 | 17 | 73 | 3.2 | 6.4 | 0.00 | 0.00 | 0.00 | 69 | 1011.4 |
| 20260505040033 | 17 | 84 | 0.0 | 8.0 | 0.00 | 0.00 | 0.00 | 66 | 1011.4 |
| 20260505034538 | 18 | 68 | 0.0 | 6.4 | 0.00 | 0.00 | 0.00 | 64 | 1011.1 |
| 20260505033045 | 19 | 63 | 0.0 | 1.6 | 0.00 | 0.00 | 0.00 | 62 | 1011.0 |
| 20260505031558 | 20 | 80 | 0.0 | 0.0 | 0.00 | 0.00 | 0.00 | 60 | 1010.8 |
| 20260505030103 | 21 | 36 | 0.0 | 3.2 | 0.00 | 0.00 | 0.00 | 58 | 1010.5 |
| 20260505024509 | 21 | 196 | 0.0 | 6.4 | 0.00 | 0.00 | 0.00 | 57 | 1010.3 |
| 20260505023011 | 22 | 80 | 0.0 | 8.0 | 0.00 | 0.00 | 0.00 | 55 | 1010.2 |
| 20260505021527 | 22 | 84 | 0.0 | 6.4 | 0.00 | 0.00 | 0.00 | 54 | 1010.2 |
| 20260505020035 | 23 | 163 | 0.0 | 0.0 | 0.00 | 0.00 | 0.00 | 53 | 1010.2 |
| 20260505014541 | 23 | 162 | 0.0 | 0.0 | 0.00 | 0.00 | 0.00 | 53 | 1010.1 |
| 20260505013057 | 23 | 160 | 0.0 | 1.6 | 0.00 | 0.00 | 0.00 | 51 | 1010.1 |
| 20260505011553 | 24 | 160 | 0.0 | 0.0 | 0.00 | 0.00 | 0.00 | 50 | 1010.2 |
| 20260505010113 | 25 | 159 | 0.0 | 1.6 | 0.00 | 0.00 | 0.00 | 47 | 1010.2 |
| 20260505004509 | 25 | 135 | 0.0 | 1.6 | 0.00 | 0.00 | 0.00 | 46 | 1010.0 |
| 20260505003021 | 25 | 134 | 0.0 | 1.6 | 0.00 | 0.00 | 0.00 | 45 | 1010.2 |
| 20260505001525 | 25 | 188 | 0.0 | 1.6 | 0.00 | 0.00 | 0.00 | 45 | 1010.1 |
| 20260505000038 | 26 | 131 | 0.0 | 1.6 | 0.00 | 0.00 | 0.00 | 45 | 1010.1 |
| 20260504234541 | 25 | 217 | 0.0 | 1.6 | 0.00 | 0.00 | 0.00 | 45 | 1010.2 |
| 20260504233102 | 26 | 163 | 0.0 | 3.2 | 0.00 | 0.00 | 0.00 | 43 | 1010.2 |
| 20260504231551 | 26 | 115 | 1.6 | 6.4 | 0.00 | 0.00 | 0.00 | 44 | 1010.3 |
| 20260504230059 | 26 | 205 | 1.6 | 6.4 | 0.00 | 0.00 | 0.00 | 43 | 1010.4 |
| 20260504224511 | 27 | 134 | 0.0 | 3.2 | 0.00 | 0.00 | 0.00 | 43 | 1010.5 |
| 20260504223005 | 26 | 187 | 0.0 | 8.0 | 0.00 | 0.00 | 0.00 | 42 | 1010.6 |
| 20260504221511 | 27 | 177 | 0.0 | 3.2 | 0.00 | 0.00 | 0.00 | 38 | 1010.7 |
| 20260504220025 | 27 | 187 | 0.0 | 1.6 | 0.00 | 0.00 | 0.00 | 38 | 1010.8 |
| 20260504214533 | 27 | 184 | 0.0 | 1.6 | 0.00 | 0.00 | 0.00 | 37 | 1010.8 |
| 20260504213033 | 26 | 153 | 0.0 | 4.8 | 0.00 | 0.00 | 0.00 | 37 | 1010.9 |
| 20260504211540 | 26 | 150 | 0.0 | 1.6 | 0.00 | 0.00 | 0.00 | 39 | 1011.0 |
| 20260504210104 | 25 | 86 | 0.0 | 4.8 | 0.00 | 0.00 | 0.00 | 40 | 1011.1 |
| 20260504204602 | 25 | 137 | 0.0 | 4.8 | 0.00 | 0.00 | 0.00 | 41 | 1011.1 |
| 20260504203110 | 26 | 95 | 0.0 | 3.2 | 0.00 | 0.00 | 0.00 | 41 | 1011.3 |
| 20260504201559 | 25 | 200 | 0.0 | 1.6 | 0.00 | 0.00 | 0.00 | 39 | 1011.2 |
| 20260504200003 | 25 | 187 | 0.0 | 3.2 | 0.00 | 0.00 | 0.00 | 40 | 1011.4 |
| 20260504194519 | 25 | 172 | 0.0 | 4.8 | 0.00 | 0.00 | 0.00 | 42 | 1011.5 |
| 20260504193030 | 25 | 46 | 1.6 | 8.0 | 0.00 | 0.00 | 0.00 | 44 | 1011.4 |
| 20260504191535 | 24 | 155 | 0.0 | 4.8 | 0.00 | 0.00 | 0.00 | 44 | 1011.5 |
| 20260504190101 | 23 | 118 | 0.0 | 1.6 | 0.00 | 0.00 | 0.00 | 46 | 1011.7 |
| 20260504184544 | 23 | 59 | 0.0 | 6.4 | 0.00 | 0.00 | 0.00 | 46 | 1011.9 |
| 20260504183057 | 22 | 34 | 0.0 | 6.4 | 0.00 | 0.00 | 0.00 | 47 | 1011.9 |
| 20260504181604 | 22 | 72 | 1.6 | 11.3 | 0.00 | 0.00 | 0.00 | 48 | 1011.9 |
| 20260504180011 | 21 | 46 | 0.0 | 11.3 | 0.00 | 0.00 | 0.00 | 48 | 1012.0 |
| 20260504174536 | 21 | 110 | 0.0 | 8.0 | 0.00 | 0.00 | 0.00 | 51 | 1011.9 |
| 20260504173102 | 20 | 50 | 3.2 | 9.7 | 0.00 | 0.00 | 0.00 | 49 | 1012.0 |
| 20260504171519 | 20 | 72 | 1.6 | 6.4 | 0.00 | 0.00 | 0.00 | 51 | 1012.0 |
| 20260504150103 | 15 | 107 | 0.0 | 0.0 | 0.00 | 0.00 | 0.00 | 66 | 1011.2 |
| 20260504081516 | 12 | 105 | 0.0 | 0.0 | 0.00 | 0.00 | 0.00 | 82 | 1010.3 |